Time,TemperatureF,DewpointF,PressureIn,WindDirection,WindDirectionDegrees,WindSpeedMPH,WindSpeedGustMPH,Humidity,HourlyPrecipIn,Conditions,Clouds,dailyrainin,SoftwareType,DateUTC
2013-06-29 00:00:00,64.2,62.7,29.65,NNW,334,0.0,2.0,95,0.02,,SKC,0.37,VWS V14.01,2013-06-29 04:00:00,
2013-06-29 00:01:00,64.0,62.5,29.63,NNW,330,0.0,0.0,95,0.05,,SKC,0.42,VWS V14.01,2013-06-29 04:01:00,
2013-06-29 00:02:00,64.0,62.5,29.63,NNW,330,0.0,1.0,95,0.05,,SKC,0.42,VWS V14.01,2013-06-29 04:02:00,
2013-06-29 00:03:00,64.0,62.5,29.63,NNW,330,0.0,1.0,95,0.05,,SKC,0.42,VWS V14.01,2013-06-29 04:03:00,
2013-06-29 00:04:00,64.0,62.5,29.63,NNW,330,0.0,1.0,95,0.05,,SKC,0.42,VWS V14.01,2013-06-29 04:04:00,
2013-06-29 00:09:00,64.0,62.5,29.63,NNW,330,0.0,1.0,95,0.06,,SKC,0.43,VWS V14.01,2013-06-29 04:09:00,
2013-06-29 00:14:00,64.0,62.5,29.63,NNW,330,0.0,1.0,95,0.07,,SKC,0.44,VWS V14.01,2013-06-29 04:14:00,
2013-06-29 00:19:00,64.0,62.5,29.63,NNW,330,0.0,1.0,95,0.08,,SKC,0.45,VWS V14.01,2013-06-29 04:19:00,
2013-06-29 00:24:00,64.0,62.5,29.63,NNW,330,0.0,1.0,95,0.09,,SKC,0.46,VWS V14.01,2013-06-29 04:24:00,
2013-06-29 00:29:00,64.0,62.5,29.64,NNW,330,0.0,1.0,95,0.10,,SKC,0.47,VWS V14.01,2013-06-29 04:29:00,
2013-06-29 00:30:00,64.0,62.5,29.65,NNW,329,0.0,4.0,95,0.05,,SKC,0.41,VWS V14.01,2013-06-29 04:30:00,
2013-06-29 00:35:00,64.0,62.5,29.63,NNW,330,0.0,1.0,95,0.07,,SKC,0.48,VWS V14.01,2013-06-29 04:35:00,
2013-06-29 00:40:00,64.0,62.5,29.63,NNW,330,0.0,1.0,95,0.08,,SKC,0.49,VWS V14.01,2013-06-29 04:40:00,
2013-06-29 00:45:00,64.0,62.5,29.63,NNW,330,0.0,1.0,95,0.09,,SKC,0.50,VWS V14.01,2013-06-29 04:45:00,
2013-06-29 00:50:00,64.0,62.5,29.62,NNW,330,0.0,1.0,95,0.10,,SKC,0.51,VWS V14.01,2013-06-29 04:50:00,
2013-06-29 00:55:00,64.0,62.5,29.62,NNW,330,0.0,1.0,95,0.11,,SKC,0.52,VWS V14.01,2013-06-29 04:55:00,
2013-06-29 01:00:00,64.0,62.5,29.62,NNW,330,0.0,1.0,95,0.12,,SKC,0.53,VWS V14.01,2013-06-29 05:00:00,
2013-06-29 01:05:00,64.0,62.5,29.62,NNW,330,0.0,0.0,95,0.12,,SKC,0.01,VWS V14.01,2013-06-29 05:05:00,
2013-06-29 01:10:00,64.0,62.5,29.62,NNW,330,0.0,0.0,95,0.13,,SKC,0.02,VWS V14.01,2013-06-29 05:10:00,
2013-06-29 01:15:00,64.0,62.5,29.62,NNW,330,0.0,1.0,95,0.14,,SKC,0.03,VWS V14.01,2013-06-29 05:15:00,
2013-06-29 01:20:00,63.9,62.4,29.62,NNW,330,0.0,1.0,95,0.14,,SKC,0.03,VWS V14.01,2013-06-29 05:20:00,
2013-06-29 01:25:00,63.9,62.4,29.62,NNW,330,0.0,1.0,95,0.15,,SKC,0.04,VWS V14.01,2013-06-29 05:25:00,
2013-06-29 01:30:00,64.0,62.5,29.62,NNW,330,0.0,0.0,95,0.12,,SKC,0.06,VWS V14.01,2013-06-29 05:30:00,
2013-06-29 01:35:00,64.0,62.5,29.62,NNW,330,0.0,1.0,95,0.14,,SKC,0.08,VWS V14.01,2013-06-29 05:35:00,
2013-06-29 01:40:00,63.9,62.4,29.61,NNW,330,0.0,1.0,95,0.15,,SKC,0.09,VWS V14.01,2013-06-29 05:40:00,
2013-06-29 01:45:00,63.8,62.3,29.61,NNW,330,0.0,1.0,95,0.15,,SKC,0.09,VWS V14.01,2013-06-29 05:45:00,
2013-06-29 01:50:00,63.9,62.4,29.61,NNW,330,0.0,1.0,95,0.15,,SKC,0.09,VWS V14.01,2013-06-29 05:50:00,
2013-06-29 01:56:00,63.8,62.3,29.61,NNW,330,0.0,1.0,95,0.16,,SKC,0.10,VWS V14.01,2013-06-29 05:56:00,
2013-06-29 02:00:00,64.0,62.5,29.62,NNW,330,0.0,1.0,95,0.12,,SKC,0.53,VWS V14.01,2013-06-29 06:00:00,
2013-06-29 02:01:00,63.9,62.4,29.61,NNW,330,0.0,0.0,95,0.10,,SKC,0.10,VWS V14.01,2013-06-29 06:01:00,
2013-06-29 02:06:00,63.9,62.4,29.61,NNW,330,4.0,4.0,95,0.13,,SKC,0.13,VWS V14.01,2013-06-29 06:06:00,
2013-06-29 02:11:00,63.9,62.4,29.60,NNW,330,0.0,4.0,95,0.19,,SKC,0.19,VWS V14.01,2013-06-29 06:11:00,
2013-06-29 02:16:00,63.9,62.4,29.60,NNW,330,0.0,4.0,95,0.24,,SKC,0.24,VWS V14.01,2013-06-29 06:16:00,
2013-06-29 02:21:00,63.9,62.4,29.60,NNW,330,0.0,5.0,95,0.32,,SKC,0.32,VWS V14.01,2013-06-29 06:21:00,
2013-06-29 02:26:00,63.8,62.3,29.60,WNW,285,0.0,6.0,95,0.47,,SKC,0.47,VWS V14.01,2013-06-29 06:26:00,
2013-06-29 02:30:00,64.0,62.5,29.62,NNW,330,0.0,1.0,95,0.17,,SKC,0.06,VWS V14.01,2013-06-29 06:30:00,
2013-06-29 02:31:00,63.7,62.2,29.61,West,273,2.0,2.0,95,0.64,,SKC,0.70,VWS V14.01,2013-06-29 06:31:00,
2013-06-29 02:36:00,63.7,62.2,29.61,ENE,60,6.0,8.0,95,0.86,,SKC,0.92,VWS V14.01,2013-06-29 06:36:00,
2013-06-29 02:41:00,63.8,62.3,29.61,ENE,73,8.0,12.0,95,0.98,,SKC,1.04,VWS V14.01,2013-06-29 06:41:00,
2013-06-29 02:46:00,63.1,61.7,29.61,ENE,62,5.0,12.0,95,1.02,,SKC,1.08,VWS V14.01,2013-06-29 06:46:00,
2013-06-29 02:51:00,62.6,61.2,29.61,ENE,67,6.0,12.0,95,1.04,,SKC,1.10,VWS V14.01,2013-06-29 06:51:00,
2013-06-29 02:56:00,62.3,60.8,29.61,East,79,9.0,12.0,95,1.05,,SKC,1.11,VWS V14.01,2013-06-29 06:56:00,
2013-06-29 03:00:00,63.9,62.4,29.61,NNW,330,0.0,1.0,95,0.16,,SKC,0.10,VWS V14.01,2013-06-29 07:00:00,
2013-06-29 03:01:00,62.3,60.8,29.61,East,80,7.0,7.0,95,1.01,,SKC,1.11,VWS V14.01,2013-06-29 07:01:00,
2013-06-29 03:06:00,62.2,60.8,29.61,East,80,5.0,7.0,95,1.02,,SKC,1.12,VWS V14.01,2013-06-29 07:06:00,
2013-06-29 03:11:00,62.3,60.8,29.62,East,80,0.0,7.0,95,1.02,,SKC,1.12,VWS V14.01,2013-06-29 07:11:00,
2013-06-29 03:16:00,62.3,60.8,29.62,East,80,0.0,7.0,95,1.02,,SKC,1.12,VWS V14.01,2013-06-29 07:16:00,
2013-06-29 03:21:00,62.2,60.8,29.62,East,80,0.0,7.0,95,1.02,,SKC,1.12,VWS V14.01,2013-06-29 07:21:00,
2013-06-29 03:26:00,62.1,60.7,29.62,East,80,0.0,7.0,95,1.04,,SKC,1.14,VWS V14.01,2013-06-29 07:26:00,
2013-06-29 03:30:00,63.7,62.2,29.61,West,273,2.0,8.0,95,0.67,,SKC,0.67,VWS V14.01,2013-06-29 07:30:00,
2013-06-29 03:31:00,62.1,60.7,29.62,East,80,0.0,0.0,95,0.48,,SKC,1.15,VWS V14.01,2013-06-29 07:31:00,
2013-06-29 03:36:00,62.1,60.7,29.62,East,80,0.0,4.0,95,0.49,,SKC,1.16,VWS V14.01,2013-06-29 07:36:00,
2013-06-29 03:41:00,62.1,60.7,29.62,East,80,0.0,4.0,95,0.51,,SKC,1.18,VWS V14.01,2013-06-29 07:41:00,
2013-06-29 03:46:00,62.1,60.7,29.62,East,80,1.0,4.0,95,0.53,,SKC,1.20,VWS V14.01,2013-06-29 07:46:00,
2013-06-29 03:51:00,62.1,60.7,29.62,East,79,0.0,4.0,95,0.55,,SKC,1.22,VWS V14.01,2013-06-29 07:51:00,
2013-06-29 03:56:00,62.0,60.6,29.62,ENE,58,0.0,7.0,95,0.56,,SKC,1.23,VWS V14.01,2013-06-29 07:56:00,
2013-06-29 04:00:00,62.3,60.8,29.61,East,80,5.0,12.0,95,1.05,,SKC,1.11,VWS V14.01,2013-06-29 08:00:00,
2013-06-29 04:01:00,62.0,60.6,29.63,ENE,57,0.0,1.0,95,0.12,,SKC,1.23,VWS V14.01,2013-06-29 08:01:00,
2013-06-29 04:06:00,62.1,60.7,29.62,NE,55,0.0,5.0,95,0.13,,SKC,1.24,VWS V14.01,2013-06-29 08:06:00,
2013-06-29 04:11:00,62.0,60.6,29.63,NE,52,0.0,5.0,95,0.13,,SKC,1.24,VWS V14.01,2013-06-29 08:11:00,
2013-06-29 04:16:00,61.8,60.4,29.63,NE,44,0.0,5.0,95,0.14,,SKC,1.25,VWS V14.01,2013-06-29 08:16:00,
2013-06-29 04:21:00,61.6,60.2,29.63,NE,35,4.0,5.0,95,0.15,,SKC,1.26,VWS V14.01,2013-06-29 08:21:00,
2013-06-29 04:27:00,61.6,60.2,29.63,NE,35,0.0,5.0,95,0.16,,SKC,1.27,VWS V14.01,2013-06-29 08:27:00,
2013-06-29 04:30:00,62.1,60.7,29.62,East,80,0.0,7.0,95,1.04,,SKC,1.14,VWS V14.01,2013-06-29 08:30:00,
2013-06-29 04:32:00,61.5,60.1,29.63,NE,35,0.0,0.0,95,0.14,,SKC,1.28,VWS V14.01,2013-06-29 08:32:00,
2013-06-29 04:37:00,61.4,60.0,29.64,NE,35,0.0,6.0,95,0.14,,SKC,1.28,VWS V14.01,2013-06-29 08:37:00,
2013-06-29 04:42:00,61.4,60.0,29.64,NE,36,0.0,6.0,95,0.15,,SKC,1.29,VWS V14.01,2013-06-29 08:42:00,
2013-06-29 04:47:00,61.4,60.0,29.64,NE,36,0.0,6.0,95,0.16,,SKC,1.30,VWS V14.01,2013-06-29 08:47:00,
2013-06-29 04:52:00,61.3,59.9,29.64,NE,36,2.0,6.0,95,0.17,,SKC,1.31,VWS V14.01,2013-06-29 08:52:00,
2013-06-29 04:57:00,61.0,59.6,29.64,NNE,31,0.0,6.0,95,0.17,,SKC,1.31,VWS V14.01,2013-06-29 08:57:00,
2013-06-29 05:00:00,62.0,60.6,29.62,ENE,57,0.0,7.0,95,0.56,,SKC,1.23,VWS V14.01,2013-06-29 09:00:00,
2013-06-29 05:02:00,60.8,59.4,29.64,NNE,28,0.0,2.0,95,0.08,,SKC,1.31,VWS V14.01,2013-06-29 09:02:00,
2013-06-29 05:07:00,60.7,59.3,29.64,NNE,23,5.0,7.0,95,0.08,,SKC,1.31,VWS V14.01,2013-06-29 09:07:00,
2013-06-29 05:12:00,60.6,59.2,29.64,North,5,0.0,7.0,95,0.08,,SKC,1.31,VWS V14.01,2013-06-29 09:12:00,
2013-06-29 05:17:00,60.5,59.1,29.64,North,5,0.0,7.0,95,0.09,,SKC,1.32,VWS V14.01,2013-06-29 09:17:00,
2013-06-29 05:22:00,60.6,59.2,29.65,North,5,0.0,7.0,95,0.09,,SKC,1.32,VWS V14.01,2013-06-29 09:22:00,
2013-06-29 05:27:00,60.7,59.3,29.65,NNE,30,0.0,7.0,95,0.09,,SKC,1.32,VWS V14.01,2013-06-29 09:27:00,
2013-06-29 05:30:00,61.5,60.1,29.63,NE,35,0.0,5.0,95,0.17,,SKC,1.28,VWS V14.01,2013-06-29 09:30:00,
2013-06-29 05:32:00,60.7,59.3,29.65,NE,38,0.0,1.0,95,0.04,,SKC,1.32,VWS V14.01,2013-06-29 09:32:00,
2013-06-29 05:37:00,60.7,59.3,29.65,NE,37,0.0,4.0,95,0.04,,SKC,1.32,VWS V14.01,2013-06-29 09:37:00,
2013-06-29 05:42:00,60.5,59.1,29.65,NE,34,0.0,5.0,95,0.04,,SKC,1.32,VWS V14.01,2013-06-29 09:42:00,
2013-06-29 05:47:00,60.5,59.1,29.65,NNE,19,1.0,6.0,95,0.04,,SKC,1.32,VWS V14.01,2013-06-29 09:47:00,
2013-06-29 05:52:00,60.4,59.0,29.66,NNE,19,0.0,6.0,95,0.04,,SKC,1.32,VWS V14.01,2013-06-29 09:52:00,
2013-06-29 05:57:00,60.4,59.0,29.66,NNE,17,0.0,6.0,95,0.04,,SKC,1.32,VWS V14.01,2013-06-29 09:57:00,
2013-06-29 06:00:00,60.9,59.5,29.64,NNE,28,1.0,6.0,95,0.17,,SKC,1.31,VWS V14.01,2013-06-29 10:00:00,
2013-06-29 06:02:00,60.4,59.0,29.66,North,5,1.0,5.0,95,0.01,,SKC,1.32,VWS V14.01,2013-06-29 10:02:00,
2013-06-29 06:07:00,60.5,59.1,29.66,North,9,0.0,8.0,95,0.01,,SKC,1.32,VWS V14.01,2013-06-29 10:07:00,
2013-06-29 06:12:00,60.4,59.0,29.66,North,360,0.0,8.0,95,0.01,,SKC,1.32,VWS V14.01,2013-06-29 10:12:00,
2013-06-29 06:17:00,60.5,59.1,29.66,North,360,0.0,8.0,95,0.01,,SKC,1.32,VWS V14.01,2013-06-29 10:17:00,
2013-06-29 06:22:00,60.4,59.0,29.66,North,360,1.0,8.0,95,0.01,,SKC,1.32,VWS V14.01,2013-06-29 10:22:00,
2013-06-29 06:27:00,60.4,59.0,29.67,NNW,339,2.0,8.0,95,0.01,,SKC,1.32,VWS V14.01,2013-06-29 10:27:00,
2013-06-29 06:30:00,60.7,59.3,29.65,NE,38,1.0,7.0,95,0.09,,SKC,1.32,VWS V14.01,2013-06-29 10:30:00,
2013-06-29 06:32:00,60.4,59.0,29.67,NNW,340,1.0,5.0,95,0.00,,SKC,1.32,VWS V14.01,2013-06-29 10:32:00,
2013-06-29 06:37:00,60.3,58.9,29.67,NNE,15,0.0,6.0,95,0.00,,SKC,1.32,VWS V14.01,2013-06-29 10:37:00,
2013-06-29 06:42:00,60.3,58.9,29.67,NNW,346,0.0,6.0,95,0.00,,SKC,1.32,VWS V14.01,2013-06-29 10:42:00,
2013-06-29 06:47:00,60.3,58.9,29.67,NNE,27,0.0,7.0,95,0.00,,SKC,1.32,VWS V14.01,2013-06-29 10:47:00,
2013-06-29 06:53:00,60.3,58.9,29.67,NNE,24,2.0,7.0,95,0.00,,SKC,1.32,VWS V14.01,2013-06-29 10:53:00,
2013-06-29 06:58:00,60.3,58.9,29.67,NNW,341,0.0,7.0,95,0.00,,SKC,1.32,VWS V14.01,2013-06-29 10:58:00,
2013-06-29 07:00:00,60.4,59.0,29.66,NNW,348,5.0,7.0,95,0.04,,SKC,1.32,VWS V14.01,2013-06-29 11:00:00,
2013-06-29 07:03:00,60.3,58.9,29.67,NNW,341,0.0,1.0,95,0.00,,SKC,1.32,VWS V14.01,2013-06-29 11:03:00,
2013-06-29 07:08:00,60.4,59.0,29.67,NNW,342,0.0,5.0,95,0.00,,SKC,1.32,VWS V14.01,2013-06-29 11:08:00,
2013-06-29 07:13:00,60.4,59.0,29.67,NNW,342,0.0,5.0,95,0.00,,SKC,1.32,VWS V14.01,2013-06-29 11:13:00,
2013-06-29 07:18:00,60.6,59.2,29.67,NNW,340,0.0,6.0,95,0.00,,SKC,1.32,VWS V14.01,2013-06-29 11:18:00,
2013-06-29 07:23:00,60.6,59.2,29.68,NNE,14,0.0,6.0,95,0.00,,SKC,1.32,VWS V14.01,2013-06-29 11:23:00,
2013-06-29 07:29:00,60.6,59.2,29.68,North,355,0.0,7.0,95,0.00,,SKC,1.32,VWS V14.01,2013-06-29 11:29:00,
2013-06-29 07:30:00,60.4,59.0,29.67,NNW,339,1.0,8.0,95,0.01,,SKC,1.32,VWS V14.01,2013-06-29 11:30:00,
2013-06-29 07:34:00,60.7,59.3,29.68,North,355,0.0,2.0,95,0.00,,SKC,1.32,VWS V14.01,2013-06-29 11:34:00,
2013-06-29 07:39:00,60.7,59.3,29.68,North,355,0.0,2.0,95,0.00,,SKC,1.32,VWS V14.01,2013-06-29 11:39:00,
2013-06-29 07:44:00,60.7,59.3,29.68,North,355,0.0,2.0,95,0.00,,SKC,1.32,VWS V14.01,2013-06-29 11:44:00,
2013-06-29 07:49:00,60.7,59.3,29.69,North,5,0.0,4.0,95,0.00,,SKC,1.32,VWS V14.01,2013-06-29 11:49:00,
2013-06-29 07:54:00,60.7,59.3,29.69,North,5,0.0,4.0,95,0.00,,SKC,1.32,VWS V14.01,2013-06-29 11:54:00,
2013-06-29 07:59:00,60.8,59.4,29.69,WNW,297,0.0,8.0,95,0.00,,SKC,1.32,VWS V14.01,2013-06-29 11:59:00,
2013-06-29 08:00:00,60.3,58.9,29.67,NNW,341,0.0,7.0,95,0.00,,SKC,1.32,VWS V14.01,2013-06-29 12:00:00,
2013-06-29 08:04:00,60.9,59.5,29.69,NNE,13,4.0,13.0,95,0.00,,SKC,1.32,VWS V14.01,2013-06-29 12:04:00,
2013-06-29 08:09:00,61.0,59.6,29.69,North,9,0.0,13.0,95,0.00,,SKC,1.32,VWS V14.01,2013-06-29 12:09:00,
2013-06-29 08:14:00,61.1,59.7,29.69,NNE,12,1.0,13.0,95,0.00,,SKC,1.32,VWS V14.01,2013-06-29 12:14:00,
2013-06-29 08:19:00,61.2,59.8,29.69,North,11,0.0,13.0,95,0.00,,SKC,1.32,VWS V14.01,2013-06-29 12:19:00,
2013-06-29 08:24:00,61.4,60.0,29.69,NNE,17,1.0,13.0,95,0.00,,SKC,1.32,VWS V14.01,2013-06-29 12:24:00,
2013-06-29 08:29:00,61.5,60.1,29.70,North,5,0.0,13.0,95,0.00,,SKC,1.32,VWS V14.01,2013-06-29 12:29:00,
2013-06-29 08:30:00,60.7,59.3,29.68,North,355,0.0,7.0,95,0.00,,SKC,1.32,VWS V14.01,2013-06-29 12:30:00,
2013-06-29 08:34:00,61.5,60.1,29.70,NNW,334,0.0,6.0,95,0.00,,SKC,1.32,VWS V14.01,2013-06-29 12:34:00,
2013-06-29 08:39:00,61.5,60.1,29.70,NNW,334,0.0,6.0,95,0.00,,SKC,1.32,VWS V14.01,2013-06-29 12:39:00,
2013-06-29 08:44:00,61.5,60.1,29.70,NW,322,0.0,7.0,95,0.00,,SKC,1.32,VWS V14.01,2013-06-29 12:44:00,
2013-06-29 08:49:00,61.5,60.1,29.70,NNW,348,0.0,7.0,95,0.00,,SKC,1.32,VWS V14.01,2013-06-29 12:49:00,
2013-06-29 08:54:00,61.5,60.1,29.71,NNW,348,0.0,7.0,95,0.00,,SKC,1.32,VWS V14.01,2013-06-29 12:54:00,
2013-06-29 08:59:00,61.5,60.1,29.71,NNW,329,0.0,7.0,95,0.00,,SKC,1.32,VWS V14.01,2013-06-29 12:59:00,
2013-06-29 09:00:00,60.8,59.4,29.69,WNW,298,0.0,8.0,95,0.00,,SKC,1.32,VWS V14.01,2013-06-29 13:00:00,
2013-06-29 09:04:00,61.7,60.3,29.71,North,5,1.0,3.0,95,0.00,,SKC,1.32,VWS V14.01,2013-06-29 13:04:00,
2013-06-29 09:09:00,61.8,60.4,29.71,NNW,344,0.0,7.0,95,0.00,,SKC,1.32,VWS V14.01,2013-06-29 13:09:00,
2013-06-29 09:14:00,62.0,60.6,29.71,North,360,6.0,7.0,95,0.00,,SKC,1.32,VWS V14.01,2013-06-29 13:14:00,
2013-06-29 09:19:00,62.4,61.0,29.71,NE,41,1.0,8.0,95,0.00,,SKC,1.32,VWS V14.01,2013-06-29 13:19:00,
2013-06-29 09:24:00,62.9,61.5,29.71,NNE,17,0.0,8.0,95,0.00,,SKC,1.32,VWS V14.01,2013-06-29 13:24:00,
2013-06-29 09:29:00,63.2,61.8,29.72,NNE,17,1.0,8.0,95,0.00,,SKC,1.32,VWS V14.01,2013-06-29 13:29:00,
2013-06-29 09:30:00,61.5,60.1,29.70,North,5,0.0,13.0,95,0.00,,SKC,1.32,VWS V14.01,2013-06-29 13:30:00,
2013-06-29 09:34:00,63.3,61.8,29.72,NNE,17,0.0,3.0,95,0.00,,SKC,1.32,VWS V14.01,2013-06-29 13:34:00,
2013-06-29 09:39:00,63.2,62.0,29.72,NNW,344,1.0,8.0,96,0.00,,SKC,1.32,VWS V14.01,2013-06-29 13:39:00,
2013-06-29 09:44:00,63.1,61.9,29.72,NNW,343,0.0,8.0,96,0.00,,SKC,1.32,VWS V14.01,2013-06-29 13:44:00,
2013-06-29 09:50:00,63.1,61.9,29.72,NNW,342,0.0,8.0,96,0.00,,SKC,1.32,VWS V14.01,2013-06-29 13:50:00,
2013-06-29 09:55:00,63.2,62.0,29.72,NNW,342,0.0,8.0,96,0.00,,SKC,1.32,VWS V14.01,2013-06-29 13:55:00,
2013-06-29 10:00:00,63.3,62.1,29.72,North,5,1.0,8.0,96,0.00,,SKC,1.32,VWS V14.01,2013-06-29 14:00:00,
2013-06-29 10:05:00,63.5,62.3,29.72,NW,323,4.0,11.0,96,0.00,,SKC,1.32,VWS V14.01,2013-06-29 14:05:00,
2013-06-29 10:10:00,63.5,62.3,29.72,North,5,0.0,12.0,96,0.00,,SKC,1.32,VWS V14.01,2013-06-29 14:10:00,
2013-06-29 10:15:00,63.8,62.3,29.72,NNW,332,4.0,12.0,95,0.00,,SKC,1.32,VWS V14.01,2013-06-29 14:15:00,
2013-06-29 10:20:00,64.0,62.5,29.73,NNW,343,0.0,12.0,95,0.00,,SKC,1.32,VWS V14.01,2013-06-29 14:20:00,
2013-06-29 10:25:00,64.7,63.2,29.73,NNW,343,1.0,12.0,95,0.00,,SKC,1.32,VWS V14.01,2013-06-29 14:25:00,
2013-06-29 10:30:00,65.1,63.3,29.73,NE,34,0.0,12.0,94,0.00,,SKC,1.32,VWS V14.01,2013-06-29 14:30:00,
2013-06-29 10:35:00,65.3,63.2,29.73,NNE,22,0.0,6.0,93,0.00,,SKC,1.32,VWS V14.01,2013-06-29 14:35:00,
2013-06-29 10:40:00,65.6,63.2,29.72,NNE,22,0.0,6.0,92,0.00,,SKC,1.32,VWS V14.01,2013-06-29 14:40:00,
2013-06-29 10:45:00,65.7,63.0,29.73,NNE,30,0.0,7.0,91,0.00,,SKC,1.32,VWS V14.01,2013-06-29 14:45:00,
2013-06-29 10:50:00,65.8,62.8,29.73,NNE,22,0.0,7.0,90,0.00,,SKC,1.32,VWS V14.01,2013-06-29 14:50:00,
2013-06-29 10:55:00,65.8,62.5,29.73,NNW,332,0.0,7.0,89,0.00,,SKC,1.32,VWS V14.01,2013-06-29 14:55:00,
2013-06-29 11:00:00,66.0,63.0,29.73,North,355,0.0,7.0,90,0.00,,SKC,1.32,VWS V14.01,2013-06-29 15:00:00,
2013-06-29 11:05:00,66.3,63.0,29.73,North,355,0.0,2.0,89,0.00,,SKC,1.32,VWS V14.01,2013-06-29 15:05:00,
2013-06-29 11:10:00,66.5,63.2,29.73,NE,42,0.0,6.0,89,0.00,,SKC,1.32,VWS V14.01,2013-06-29 15:10:00,
2013-06-29 11:15:00,66.6,62.9,29.73,NW,326,0.0,6.0,88,0.00,,SKC,1.32,VWS V14.01,2013-06-29 15:15:00,
2013-06-29 11:20:00,66.9,63.2,29.73,NNE,15,0.0,6.0,88,0.00,,SKC,1.32,VWS V14.01,2013-06-29 15:20:00,
2013-06-29 11:25:00,67.1,62.8,29.73,North,11,1.0,6.0,86,0.00,,SKC,1.32,VWS V14.01,2013-06-29 15:25:00,
2013-06-29 11:30:00,67.4,63.1,29.73,NNE,28,0.0,6.0,86,0.00,,SKC,1.32,VWS V14.01,2013-06-29 15:30:00,
2013-06-29 11:35:00,67.7,63.0,29.73,NNW,327,0.0,6.0,85,0.00,,SKC,1.32,VWS V14.01,2013-06-29 15:35:00,
2013-06-29 11:40:00,67.9,63.2,29.73,NNE,26,1.0,6.0,85,0.00,,SKC,1.32,VWS V14.01,2013-06-29 15:40:00,
2013-06-29 11:45:00,68.3,63.6,29.73,NNE,26,0.0,6.0,85,0.00,,SKC,1.32,VWS V14.01,2013-06-29 15:45:00,
2013-06-29 11:50:00,68.5,64.2,29.73,NNE,20,0.0,6.0,86,0.00,,SKC,1.32,VWS V14.01,2013-06-29 15:50:00,
2013-06-29 11:55:00,68.7,64.0,29.73,North,11,0.0,6.0,85,0.00,,SKC,1.32,VWS V14.01,2013-06-29 15:55:00,
2013-06-29 12:00:00,68.8,64.1,29.73,North,360,1.0,2.0,85,0.00,,SKC,1.32,VWS V14.01,2013-06-29 16:00:00,
2013-06-29 12:06:00,68.8,63.4,29.73,NNE,24,0.0,7.0,83,0.00,,SKC,1.32,VWS V14.01,2013-06-29 16:06:00,
2013-06-29 12:11:00,69.0,63.6,29.73,North,5,0.0,7.0,83,0.00,,SKC,1.32,VWS V14.01,2013-06-29 16:11:00,
2013-06-29 12:16:00,69.3,64.6,29.73,North,5,0.0,7.0,85,0.00,,SKC,1.32,VWS V14.01,2013-06-29 16:16:00,
2013-06-29 12:21:00,69.4,63.7,29.73,NNW,344,6.0,7.0,82,0.00,,SKC,1.32,VWS V14.01,2013-06-29 16:21:00,
2013-06-29 12:26:00,69.6,63.9,29.73,NNW,344,1.0,7.0,82,0.00,,SKC,1.32,VWS V14.01,2013-06-29 16:26:00,
2013-06-29 12:30:00,67.4,63.1,29.73,NNE,28,0.0,6.0,86,0.00,,SKC,1.32,VWS V14.01,2013-06-29 16:30:00,
2013-06-29 12:31:00,70.1,65.1,29.73,NNE,15,1.0,1.0,84,0.00,,SKC,1.32,VWS V14.01,2013-06-29 16:31:00,
2013-06-29 12:36:00,70.7,64.2,29.73,NE,46,1.0,9.0,80,0.00,,SKC,1.32,VWS V14.01,2013-06-29 16:36:00,
2013-06-29 12:41:00,71.2,64.0,29.73,NNE,29,2.0,9.0,78,0.00,,SKC,1.32,VWS V14.01,2013-06-29 16:41:00,
2013-06-29 12:46:00,71.6,64.4,29.73,NNE,22,0.0,9.0,78,0.00,,SKC,1.32,VWS V14.01,2013-06-29 16:46:00,
2013-06-29 12:51:00,71.9,64.3,29.73,NNW,342,0.0,9.0,77,0.00,,SKC,1.32,VWS V14.01,2013-06-29 16:51:00,
2013-06-29 12:56:00,72.2,64.6,29.73,NW,307,0.0,9.0,77,0.00,,SKC,1.32,VWS V14.01,2013-06-29 16:56:00,
2013-06-29 13:00:00,68.8,64.1,29.73,North,360,0.0,6.0,85,0.00,,SKC,1.32,VWS V14.01,2013-06-29 17:00:00,
2013-06-29 13:01:00,72.5,64.5,29.73,North,5,7.0,7.0,76,0.00,,SKC,1.32,VWS V14.01,2013-06-29 17:01:00,
2013-06-29 13:06:00,73.0,64.6,29.73,NNE,15,2.0,7.0,75,0.00,,SKC,1.32,VWS V14.01,2013-06-29 17:06:00,
2013-06-29 13:11:00,73.4,65.0,29.73,NNE,15,1.0,7.0,75,0.00,,SKC,1.32,VWS V14.01,2013-06-29 17:11:00,
2013-06-29 13:16:00,73.5,64.3,29.73,NNE,13,2.0,7.0,73,0.00,,SKC,1.32,VWS V14.01,2013-06-29 17:16:00,
2013-06-29 13:21:00,73.6,64.8,29.73,NNE,21,0.0,7.0,74,0.00,,SKC,1.32,VWS V14.01,2013-06-29 17:21:00,
2013-06-29 13:26:00,73.6,64.0,29.73,NW,315,0.0,10.0,72,0.00,,SKC,1.32,VWS V14.01,2013-06-29 17:26:00,
2013-06-29 13:30:00,70.1,64.7,29.73,NNE,15,0.0,7.0,83,0.00,,SKC,1.32,VWS V14.01,2013-06-29 17:30:00,
2013-06-29 13:31:00,73.2,63.6,29.73,NE,34,4.0,5.0,72,0.05,,SKC,1.37,VWS V14.01,2013-06-29 17:31:00,
2013-06-29 13:36:00,72.7,64.3,29.73,NE,39,0.0,5.0,75,0.05,,SKC,1.37,VWS V14.01,2013-06-29 17:36:00,
2013-06-29 13:41:00,72.8,64.0,29.73,NNE,30,4.0,7.0,74,0.05,,SKC,1.37,VWS V14.01,2013-06-29 17:41:00,
2013-06-29 13:47:00,73.3,64.9,29.73,NNE,22,2.0,7.0,75,0.05,,SKC,1.37,VWS V14.01,2013-06-29 17:47:00,
2013-06-29 13:52:00,73.9,62.7,29.74,WNW,284,7.0,7.0,68,0.05,,SKC,1.37,VWS V14.01,2013-06-29 17:52:00,
2013-06-29 13:57:00,74.4,63.6,29.73,North,355,0.0,7.0,69,0.05,,SKC,1.37,VWS V14.01,2013-06-29 17:57:00,
2013-06-29 14:00:00,72.4,64.4,29.73,North,350,0.0,9.0,76,0.00,,SKC,1.32,VWS V14.01,2013-06-29 18:00:00,
2013-06-29 14:02:00,74.9,64.9,29.73,WNW,300,1.0,6.0,71,0.05,,SKC,1.37,VWS V14.01,2013-06-29 18:02:00,
2013-06-29 14:07:00,74.9,62.8,29.74,North,349,0.0,8.0,66,0.05,,SKC,1.37,VWS V14.01,2013-06-29 18:07:00,
2013-06-29 14:12:00,74.6,63.8,29.74,NW,323,5.0,8.0,69,0.05,,SKC,1.37,VWS V14.01,2013-06-29 18:12:00,
2013-06-29 14:17:00,74.6,63.8,29.74,NE,47,5.0,8.0,69,0.05,,SKC,1.37,VWS V14.01,2013-06-29 18:17:00,
2013-06-29 14:22:00,75.1,63.4,29.73,ENE,66,7.0,8.0,67,0.05,,SKC,1.37,VWS V14.01,2013-06-29 18:22:00,
2013-06-29 14:27:00,75.7,63.1,29.74,NE,53,0.0,8.0,65,0.05,,SKC,1.37,VWS V14.01,2013-06-29 18:27:00,
2013-06-29 14:30:00,73.3,63.3,29.73,NE,34,5.0,10.0,71,0.05,,SKC,1.37,VWS V14.01,2013-06-29 18:30:00,
2013-06-29 14:32:00,75.7,62.2,29.74,NE,51,6.0,7.0,63,0.00,,SKC,1.37,VWS V14.01,2013-06-29 18:32:00,
2013-06-29 14:37:00,75.8,62.3,29.74,ENE,73,9.0,10.0,63,0.00,,SKC,1.37,VWS V14.01,2013-06-29 18:37:00,
2013-06-29 14:42:00,75.8,60.9,29.74,ENE,76,7.0,14.0,60,0.00,,SKC,1.37,VWS V14.01,2013-06-29 18:42:00,
2013-06-29 14:47:00,75.3,60.5,29.74,ENE,57,5.0,14.0,60,0.00,,SKC,1.37,VWS V14.01,2013-06-29 18:47:00,
2013-06-29 14:52:00,74.9,61.5,29.74,NE,55,8.0,14.0,63,0.00,,SKC,1.37,VWS V14.01,2013-06-29 18:52:00,
2013-06-29 14:57:00,74.9,61.0,29.74,NE,54,2.0,14.0,62,0.00,,SKC,1.37,VWS V14.01,2013-06-29 18:57:00,
2013-06-29 15:00:00,74.8,64.4,29.73,North,11,4.0,7.0,70,0.05,,SKC,1.37,VWS V14.01,2013-06-29 19:00:00,
2013-06-29 15:02:00,74.9,60.6,29.74,ENE,62,7.0,10.0,61,0.00,,SKC,1.37,VWS V14.01,2013-06-29 19:02:00,
2013-06-29 15:07:00,74.8,60.5,29.74,NE,55,7.0,10.0,61,0.00,,SKC,1.37,VWS V14.01,2013-06-29 19:07:00,
2013-06-29 15:12:00,74.8,60.9,29.74,NE,38,1.0,10.0,62,0.00,,SKC,1.37,VWS V14.01,2013-06-29 19:12:00,
2013-06-29 15:17:00,75.0,59.7,29.74,NE,55,5.0,11.0,59,0.00,,SKC,1.37,VWS V14.01,2013-06-29 19:17:00,
2013-06-29 15:22:00,75.3,60.5,29.74,ENE,66,6.0,13.0,60,0.00,,SKC,1.37,VWS V14.01,2013-06-29 19:22:00,
2013-06-29 15:27:00,75.4,59.6,29.74,NNE,30,4.0,13.0,58,0.00,,SKC,1.37,VWS V14.01,2013-06-29 19:27:00,
2013-06-29 15:30:00,75.6,63.0,29.74,NE,54,0.0,8.0,65,0.05,,SKC,1.37,VWS V14.01,2013-06-29 19:30:00,
2013-06-29 15:32:00,75.4,60.1,29.74,NE,34,6.0,11.0,59,0.00,,SKC,1.37,VWS V14.01,2013-06-29 19:32:00,
2013-06-29 15:37:00,75.2,60.4,29.75,ENE,66,0.0,11.0,60,0.00,,SKC,1.37,VWS V14.01,2013-06-29 19:37:00,
2013-06-29 15:42:00,75.4,60.6,29.75,NE,52,6.0,11.0,60,0.00,,SKC,1.37,VWS V14.01,2013-06-29 19:42:00,
2013-06-29 15:47:00,75.3,60.5,29.75,NE,43,1.0,11.0,60,0.00,,SKC,1.37,VWS V14.01,2013-06-29 19:47:00,
2013-06-29 15:52:00,75.1,59.8,29.75,NE,55,4.0,11.0,59,0.00,,SKC,1.37,VWS V14.01,2013-06-29 19:52:00,
2013-06-29 15:57:00,74.9,59.6,29.75,NE,53,5.0,11.0,59,0.00,,SKC,1.37,VWS V14.01,2013-06-29 19:57:00,
2013-06-29 16:00:00,75.0,61.6,29.74,ENE,64,3.0,14.0,63,0.00,,SKC,1.37,VWS V14.01,2013-06-29 20:00:00,
2013-06-29 16:02:00,74.5,59.2,29.76,NE,46,5.0,8.0,59,0.00,,SKC,1.37,VWS V14.01,2013-06-29 20:02:00,
2013-06-29 16:07:00,74.0,59.2,29.76,NE,54,6.0,13.0,60,0.00,,SKC,1.37,VWS V14.01,2013-06-29 20:07:00,
2013-06-29 16:13:00,73.9,59.2,29.75,ENE,63,6.0,13.0,60,0.00,,SKC,1.37,VWS V14.01,2013-06-29 20:13:00,
2013-06-29 16:18:00,73.9,59.2,29.76,NE,37,3.0,13.0,60,0.00,,SKC,1.37,VWS V14.01,2013-06-29 20:18:00,
2013-06-29 16:23:00,73.6,58.4,29.76,ENE,59,6.0,13.0,59,0.00,,SKC,1.37,VWS V14.01,2013-06-29 20:23:00,
2013-06-29 16:28:00,73.5,59.2,29.76,NNE,26,0.0,13.0,61,0.00,,SKC,1.37,VWS V14.01,2013-06-29 20:28:00,
2013-06-29 16:30:00,75.4,60.1,29.74,ENE,61,5.0,13.0,59,0.00,,SKC,1.37,VWS V14.01,2013-06-29 20:30:00,
2013-06-29 16:33:00,73.4,59.6,29.76,NE,55,5.0,5.0,62,0.00,,SKC,1.37,VWS V14.01,2013-06-29 20:33:00,
2013-06-29 16:38:00,73.3,59.0,29.76,ENE,61,10.0,10.0,61,0.00,,SKC,1.37,VWS V14.01,2013-06-29 20:38:00,
2013-06-29 16:43:00,73.3,59.0,29.77,ENE,66,0.0,10.0,61,0.00,,SKC,1.37,VWS V14.01,2013-06-29 20:43:00,
2013-06-29 16:48:00,73.1,58.4,29.77,NE,49,2.0,10.0,60,0.00,,SKC,1.37,VWS V14.01,2013-06-29 20:48:00,
2013-06-29 16:53:00,73.0,59.7,29.76,NE,53,1.0,10.0,63,0.00,,SKC,1.37,VWS V14.01,2013-06-29 20:53:00,
2013-06-29 16:58:00,73.0,59.2,29.77,ENE,61,5.0,10.0,62,0.00,,SKC,1.37,VWS V14.01,2013-06-29 20:58:00,
2013-06-29 17:00:00,74.7,59.0,29.75,NE,42,2.0,11.0,58,0.00,,SKC,1.37,VWS V14.01,2013-06-29 21:00:00,
2013-06-29 17:03:00,73.0,58.3,29.76,NE,53,5.0,8.0,60,0.00,,SKC,1.37,VWS V14.01,2013-06-29 21:03:00,
2013-06-29 17:08:00,73.1,58.9,29.76,ENE,58,7.0,10.0,61,0.00,,SKC,1.37,VWS V14.01,2013-06-29 21:08:00,
2013-06-29 17:13:00,73.2,59.0,29.76,NE,48,6.0,10.0,61,0.00,,SKC,1.37,VWS V14.01,2013-06-29 21:13:00,
2013-06-29 17:18:00,73.2,59.0,29.76,ENE,65,6.0,10.0,61,0.00,,SKC,1.37,VWS V14.01,2013-06-29 21:18:00,
2013-06-29 17:23:00,73.3,60.0,29.76,North,5,0.0,10.0,63,0.00,,SKC,1.37,VWS V14.01,2013-06-29 21:23:00,
2013-06-29 17:28:00,73.3,59.5,29.76,NE,45,4.0,10.0,62,0.00,,SKC,1.37,VWS V14.01,2013-06-29 21:28:00,
2013-06-29 17:30:00,73.4,59.6,29.76,NNE,30,4.0,13.0,62,0.00,,SKC,1.37,VWS V14.01,2013-06-29 21:30:00,
2013-06-29 17:33:00,73.3,58.1,29.77,NE,47,2.0,8.0,59,0.00,,SKC,1.37,VWS V14.01,2013-06-29 21:33:00,
2013-06-29 17:38:00,73.4,60.0,29.77,NE,56,9.0,9.0,63,0.00,,SKC,1.37,VWS V14.01,2013-06-29 21:38:00,
2013-06-29 17:43:00,73.4,59.2,29.77,ENE,59,3.0,9.0,61,0.00,,SKC,1.37,VWS V14.01,2013-06-29 21:43:00,
2013-06-29 17:48:00,73.3,59.0,29.77,NE,55,6.0,12.0,61,0.00,,SKC,1.37,VWS V14.01,2013-06-29 21:48:00,
2013-06-29 17:53:00,73.3,59.0,29.77,ENE,57,6.0,12.0,61,0.00,,SKC,1.37,VWS V14.01,2013-06-29 21:53:00,
2013-06-29 17:58:00,73.2,57.5,29.77,NE,42,0.0,12.0,58,0.00,,SKC,1.37,VWS V14.01,2013-06-29 21:58:00,
2013-06-29 18:00:00,72.9,58.7,29.77,NE,49,1.0,10.0,61,0.00,,SKC,1.37,VWS V14.01,2013-06-29 22:00:00,
2013-06-29 18:03:00,73.3,57.7,29.77,NE,34,0.0,5.0,58,0.00,,SKC,1.37,VWS V14.01,2013-06-29 22:03:00,
2013-06-29 18:08:00,73.3,58.1,29.77,NE,45,6.0,9.0,59,0.00,,SKC,1.37,VWS V14.01,2013-06-29 22:08:00,
2013-06-29 18:13:00,73.3,58.6,29.77,ENE,57,6.0,12.0,60,0.00,,SKC,1.37,VWS V14.01,2013-06-29 22:13:00,
2013-06-29 18:18:00,73.3,57.7,29.77,NE,53,6.0,12.0,58,0.00,,SKC,1.37,VWS V14.01,2013-06-29 22:18:00,
2013-06-29 18:23:00,73.2,57.5,29.77,NE,48,0.0,12.0,58,0.00,,SKC,1.37,VWS V14.01,2013-06-29 22:23:00,
2013-06-29 18:28:00,73.1,57.0,29.77,NE,48,4.0,12.0,57,0.00,,SKC,1.37,VWS V14.01,2013-06-29 22:28:00,
2013-06-29 18:30:00,73.3,59.5,29.77,ENE,61,4.0,10.0,62,0.00,,SKC,1.37,VWS V14.01,2013-06-29 22:30:00,
2013-06-29 18:34:00,72.9,57.8,29.77,NE,49,1.0,10.0,59,0.00,,SKC,1.37,VWS V14.01,2013-06-29 22:34:00,
2013-06-29 18:39:00,72.8,58.6,29.77,NE,34,5.0,10.0,61,0.00,,SKC,1.37,VWS V14.01,2013-06-29 22:39:00,
2013-06-29 18:44:00,72.6,57.5,29.77,NNE,31,3.0,10.0,59,0.00,,SKC,1.37,VWS V14.01,2013-06-29 22:44:00,
2013-06-29 18:49:00,72.5,57.8,29.77,NE,48,0.0,10.0,60,0.00,,SKC,1.37,VWS V14.01,2013-06-29 22:49:00,
2013-06-29 18:54:00,72.5,58.3,29.78,North,5,2.0,10.0,61,0.00,,SKC,1.37,VWS V14.01,2013-06-29 22:54:00,
2013-06-29 18:59:00,72.7,58.9,29.78,NE,45,5.0,10.0,62,0.00,,SKC,1.37,VWS V14.01,2013-06-29 22:59:00,
2013-06-29 19:00:00,73.3,58.1,29.77,NNE,12,2.0,12.0,59,0.00,,SKC,1.37,VWS V14.01,2013-06-29 23:00:00,
2013-06-29 19:04:00,72.8,58.1,29.78,North,5,3.0,8.0,60,0.00,,SKC,1.37,VWS V14.01,2013-06-29 23:04:00,
2013-06-29 19:09:00,72.6,58.4,29.78,NE,43,2.0,8.0,61,0.00,,SKC,1.37,VWS V14.01,2013-06-29 23:09:00,
2013-06-29 19:14:00,72.6,57.9,29.78,NE,53,4.0,8.0,60,0.00,,SKC,1.37,VWS V14.01,2013-06-29 23:14:00,
2013-06-29 19:19:00,72.6,58.4,29.78,NNE,28,5.0,9.0,61,0.00,,SKC,1.37,VWS V14.01,2013-06-29 23:19:00,
2013-06-29 19:24:00,72.5,58.3,29.78,NE,49,4.0,9.0,61,0.00,,SKC,1.37,VWS V14.01,2013-06-29 23:24:00,
2013-06-29 19:29:00,72.6,57.5,29.78,ENE,60,5.0,9.0,59,0.00,,SKC,1.37,VWS V14.01,2013-06-29 23:29:00,
2013-06-29 19:30:00,73.0,57.4,29.77,NE,42,1.0,12.0,58,0.00,,SKC,1.37,VWS V14.01,2013-06-29 23:30:00,
2013-06-29 19:34:00,72.6,55.5,29.78,ENE,61,8.0,9.0,55,0.00,,SKC,1.37,VWS V14.01,2013-06-29 23:34:00,
2013-06-29 19:39:00,72.8,57.2,29.78,ENE,69,4.0,10.0,58,0.00,,SKC,1.37,VWS V14.01,2013-06-29 23:39:00,
2013-06-29 19:44:00,73.1,57.0,29.78,NE,54,4.0,11.0,57,0.00,,SKC,1.37,VWS V14.01,2013-06-29 23:44:00,
2013-06-29 19:49:00,73.2,55.6,29.78,ENE,60,5.0,11.0,54,0.00,,SKC,1.37,VWS V14.01,2013-06-29 23:49:00,
2013-06-29 19:54:00,73.1,57.0,29.79,ENE,61,2.0,11.0,57,0.00,,SKC,1.37,VWS V14.01,2013-06-29 23:54:00,
2013-06-29 19:59:00,73.0,57.4,29.79,ENE,62,4.0,11.0,58,0.00,,SKC,1.37,VWS V14.01,2013-06-29 23:59:00,
2013-06-29 20:00:00,72.7,58.0,29.78,NE,48,7.0,10.0,60,0.00,,SKC,1.37,VWS V14.01,2013-06-30 00:00:00,
2013-06-29 20:04:00,72.8,56.7,29.79,ENE,69,5.0,8.0,57,0.00,,SKC,1.37,VWS V14.01,2013-06-30 00:04:00,
2013-06-29 20:09:00,72.6,57.9,29.79,ENE,58,4.0,8.0,60,0.00,,SKC,1.37,VWS V14.01,2013-06-30 00:09:00,
2013-06-29 20:14:00,72.4,56.3,29.79,ENE,63,1.0,8.0,57,0.00,,SKC,1.37,VWS V14.01,2013-06-30 00:14:00,
2013-06-29 20:19:00,72.2,57.1,29.79,ENE,61,2.0,8.0,59,0.00,,SKC,1.37,VWS V14.01,2013-06-30 00:19:00,
2013-06-29 20:24:00,72.1,57.5,29.80,ENE,58,0.0,8.0,60,0.00,,SKC,1.37,VWS V14.01,2013-06-30 00:24:00,
2013-06-29 20:29:00,71.8,56.7,29.80,NNE,32,0.0,8.0,59,0.00,,SKC,1.37,VWS V14.01,2013-06-30 00:29:00,
2013-06-29 20:30:00,72.6,56.0,29.78,ENE,65,4.0,9.0,56,0.00,,SKC,1.37,VWS V14.01,2013-06-30 00:30:00,
2013-06-29 20:34:00,71.6,57.0,29.80,NE,34,0.0,4.0,60,0.00,,SKC,1.37,VWS V14.01,2013-06-30 00:34:00,
2013-06-29 20:39:00,71.3,57.2,29.80,NNE,28,0.0,5.0,61,0.00,,SKC,1.37,VWS V14.01,2013-06-30 00:39:00,
2013-06-29 20:44:00,71.1,56.5,29.81,NNE,32,0.0,6.0,60,0.00,,SKC,1.37,VWS V14.01,2013-06-30 00:44:00,
2013-06-29 20:50:00,70.8,56.2,29.81,NNE,33,0.0,7.0,60,0.00,,SKC,1.37,VWS V14.01,2013-06-30 00:50:00,
2013-06-29 20:55:00,70.5,56.4,29.81,NE,48,0.0,7.0,61,0.00,,SKC,1.37,VWS V14.01,2013-06-30 00:55:00,
2013-06-29 21:00:00,70.3,57.1,29.81,NE,48,0.0,7.0,63,0.00,,SKC,1.37,VWS V14.01,2013-06-30 01:00:00,
2013-06-29 21:05:00,70.0,57.3,29.81,NE,46,0.0,2.0,64,0.00,,SKC,1.37,VWS V14.01,2013-06-30 01:05:00,
2013-06-29 21:10:00,69.7,57.0,29.81,NNE,28,0.0,3.0,64,0.00,,SKC,1.37,VWS V14.01,2013-06-30 01:10:00,
2013-06-29 21:15:00,69.4,56.7,29.82,NNE,24,0.0,4.0,64,0.00,,SKC,1.37,VWS V14.01,2013-06-30 01:15:00,
2013-06-29 21:20:00,69.1,56.0,29.82,NNE,25,1.0,4.0,63,0.00,,SKC,1.37,VWS V14.01,2013-06-30 01:20:00,
2013-06-29 21:25:00,68.8,56.1,29.82,North,5,0.0,5.0,64,0.00,,SKC,1.37,VWS V14.01,2013-06-30 01:25:00,
2013-06-29 21:30:00,68.5,55.4,29.82,NNE,23,0.0,5.0,63,0.00,,SKC,1.37,VWS V14.01,2013-06-30 01:30:00,
2013-06-29 21:35:00,68.1,55.0,29.82,North,355,1.0,4.0,63,0.00,,SKC,1.37,VWS V14.01,2013-06-30 01:35:00,
2013-06-29 21:40:00,67.8,54.8,29.83,North,10,0.0,4.0,63,0.00,,SKC,1.37,VWS V14.01,2013-06-30 01:40:00,
2013-06-29 21:45:00,67.4,54.8,29.83,NNE,15,0.0,4.0,64,0.00,,SKC,1.37,VWS V14.01,2013-06-30 01:45:00,
2013-06-29 21:50:00,67.1,55.0,29.83,NNE,15,0.0,4.0,65,0.00,,SKC,1.37,VWS V14.01,2013-06-30 01:50:00,
2013-06-29 21:55:00,66.8,55.1,29.83,NNE,15,0.0,4.0,66,0.00,,SKC,1.37,VWS V14.01,2013-06-30 01:55:00,
2013-06-29 22:00:00,66.6,56.1,29.83,NNE,15,0.0,4.0,69,0.00,,SKC,1.37,VWS V14.01,2013-06-30 02:00:00,
2013-06-29 22:05:00,66.4,55.9,29.83,NNE,15,0.0,0.0,69,0.00,,SKC,1.37,VWS V14.01,2013-06-30 02:05:00,
2013-06-29 22:10:00,66.0,55.2,29.83,NNE,15,0.0,0.0,68,0.00,,SKC,1.37,VWS V14.01,2013-06-30 02:10:00,
2013-06-29 22:15:00,65.6,54.8,29.83,NNE,15,0.0,1.0,68,0.00,,SKC,1.37,VWS V14.01,2013-06-30 02:15:00,
2013-06-29 22:20:00,65.2,54.8,29.83,NNE,15,0.0,1.0,69,0.00,,SKC,1.37,VWS V14.01,2013-06-30 02:20:00,
2013-06-29 22:25:00,64.9,54.5,29.83,NNE,15,0.0,1.0,69,0.00,,SKC,1.37,VWS V14.01,2013-06-30 02:25:00,
2013-06-29 22:30:00,64.6,54.2,29.84,NNE,15,0.0,0.0,69,0.00,,SKC,1.37,VWS V14.01,2013-06-30 02:30:00,
2013-06-29 22:35:00,64.4,54.0,29.84,NNE,15,0.0,1.0,69,0.00,,SKC,1.37,VWS V14.01,2013-06-30 02:35:00,
2013-06-29 22:40:00,64.2,54.6,29.84,NNE,15,0.0,1.0,71,0.00,,SKC,1.37,VWS V14.01,2013-06-30 02:40:00,
2013-06-29 22:45:00,64.0,54.8,29.84,NNE,15,0.0,1.0,72,0.00,,SKC,1.37,VWS V14.01,2013-06-30 02:45:00,
2013-06-29 22:51:00,63.8,55.0,29.84,NNE,15,0.0,1.0,73,0.00,,SKC,1.37,VWS V14.01,2013-06-30 02:51:00,
2013-06-29 22:56:00,63.6,55.2,29.84,NNE,15,0.0,1.0,74,0.00,,SKC,1.37,VWS V14.01,2013-06-30 02:56:00,
2013-06-29 23:00:00,66.6,56.1,29.83,NNE,15,0.0,4.0,69,0.00,,SKC,1.37,VWS V14.01,2013-06-30 03:00:00,
2013-06-29 23:01:00,63.4,55.0,29.83,NNE,15,0.0,0.0,74,0.00,,SKC,1.37,VWS V14.01,2013-06-30 03:01:00,
2013-06-29 23:06:00,63.1,54.7,29.84,NNE,15,0.0,1.0,74,0.00,,SKC,1.37,VWS V14.01,2013-06-30 03:06:00,
2013-06-29 23:11:00,62.8,54.8,29.83,NNE,15,0.0,1.0,75,0.00,,SKC,1.37,VWS V14.01,2013-06-30 03:11:00,
2013-06-29 23:16:00,62.6,54.6,29.83,NNE,15,0.0,1.0,75,0.00,,SKC,1.37,VWS V14.01,2013-06-30 03:16:00,
2013-06-29 23:21:00,62.5,54.5,29.84,NNE,15,0.0,1.0,75,0.00,,SKC,1.37,VWS V14.01,2013-06-30 03:21:00,
2013-06-29 23:26:00,62.3,54.3,29.84,NNE,15,0.0,3.0,75,0.00,,SKC,1.37,VWS V14.01,2013-06-30 03:26:00,
2013-06-29 23:30:00,64.6,54.2,29.84,NNE,15,0.0,2.0,69,0.00,,SKC,1.37,VWS V14.01,2013-06-30 03:30:00,
2013-06-29 23:31:00,62.1,54.1,29.84,NNE,15,0.0,0.0,75,0.00,,SKC,1.37,VWS V14.01,2013-06-30 03:31:00,
2013-06-29 23:36:00,62.0,54.4,29.84,NNE,15,0.0,2.0,76,0.00,,SKC,1.37,VWS V14.01,2013-06-30 03:36:00,
2013-06-29 23:41:00,61.9,54.3,29.84,NNE,15,0.0,2.0,76,0.00,,SKC,1.37,VWS V14.01,2013-06-30 03:41:00,
2013-06-29 23:46:00,61.7,54.4,29.85,NNE,15,0.0,2.0,77,0.00,,SKC,1.37,VWS V14.01,2013-06-30 03:46:00,
2013-06-29 23:51:00,61.6,54.7,29.85,NNE,15,0.0,2.0,78,0.00,,SKC,1.37,VWS V14.01,2013-06-30 03:51:00,
2013-06-29 23:56:00,61.5,54.9,29.85,NNE,15,0.0,2.0,79,0.00,,SKC,1.37,VWS V14.01,2013-06-30 03:56:00,